Tracking 28125 objects as of 2-Oct-2023
HD Live streaming from Space Station
objects crossing your sky now

OPS 9381 (GGTS)

Track OPS 9381 (GGTS) now!
OPS 9381 (GGTS) is classified as:


NORAD ID: 2207
Int'l Code: 1966-053A
Perigee: 33,647.2 km
Apogee: 33,866.9 km
Inclination: 6.8 °
Period: 1,333.3 minutes
Semi major axis: 40128 km
RCS: 0.8912 m2 (medium)
Launch date: June 16, 1966
Source: United States (US)
Launch site: AIR FORCE EASTERN TEST RANGE (AFETR)
Your satellite tracking list
Your tracking list is empty




NASA's NSSDC Master Catalog

Two Line Element Set (TLE):
1 02207U 66053A   23274.70926986 -.00000076  00000-0  00000-0 0  9990
2 02207   6.8156  51.6816 0027371 204.6944 340.9523  1.08001650225270
Source of the keplerian elements: AFSPC